Weather Roundup
Issued by NWS

Home | Current Version | Previous Version | Graphics & Text | Print | Product List | Glossary Off
Versions: 1 2 3 4 5 6 7 8 9 10 11 12 13 14 15 16 17 18 19 20 21 22 23 24 25 26 27 28 29 30 31 32 33 34 35 36 37 38 39 40 41 42 43 44 45 46 47 48 49 50

974
NZUS93 KARX 280010
HRRWXR

CURRENT HOURLY OBSERVATIONS ACROSS
MUCH OF THE UPPER MISSISSIPPI VALLEY
NATIONAL WEATHER SERVICE LA CROSSE WI
600 PM CST MON FEB 27 2017


...SOUTHEAST MINNESOTA...


CITY           SKY/WX    TMP DP  RH WIND       PRES   REMARKS
ROCHESTER      PTCLDY    35  29  78 SE9       29.90F WCI  28
ROCHESTER/MAYO MOCLDY    39  29  67 SE8       29.91F WCI  33
WINONA         CLEAR     37  30  75 SE3       29.95F
AUSTIN         PTCLDY    36  30  80 E8        29.87F WCI  29
ALBERT LEA     CLOUDY    37  30  75 SE6       29.87S WCI  33
DODGE CENTER   NOT AVBL
PRESTON        PTCLDY    39  30  69 SE8       29.92F WCI  33
OWATONNA       CLOUDY    37  27  65 SE10      29.87F WCI  30
FARIBAULT      MOCLDY    37  27  65 SE7       29.88F WCI  32
$$

...ELSEWHERE IN MINNESOTA...


CITY           SKY/WX    TMP DP  RH WIND       PRES   REMARKS
MINNEAPOLIS    MOCLDY    38  23  55 SE8       29.89S WCI  32
INTNL FALLS    CLOUDY    27   8  44 NE5       29.87R WCI  22
DULUTH         CLOUDY    27  23  85 SE10      29.86S WCI  17
RED WING       CLOUDY    39  25  56 SE7       29.92S WCI  34
REDWOOD FALLS  CLEAR     38  28  67 SE9       29.81R WCI  31
MANKATO          N/A     36  27  69 SE12      29.87S WCI  28
WORTHINGTON    CLOUDY    37  29  72 SE12      29.78F WCI  29
FAIRMONT       CLOUDY    35  30  82 SE9       29.84S WCI  28
$$

...SOUTHWEST WISCONSIN...


CITY           SKY/WX    TMP DP  RH WIND       PRES   REMARKS
LA CROSSE      CLEAR     43  30  60 SE7       29.96F
PRAIRIE DU CHI PTCLDY    46  32  59 SE6       29.96F
BOSCOBEL       CLOUDY    44  33  65 E3        29.98F
LONE ROCK      CLEAR     41  33  73 E5        30.00F
PLATTEVILLE    CLOUDY    43  33  68 SE3       29.99S
FORT MC COY    CLEAR     40  30  67 CALM      29.99S
CAMP DOUGLAS   MOCLDY    39  30  70 E5        29.99S
MAUSTON-NEW LI CLEAR     39  31  72 CALM      29.99S
VIROQUA        FAIR      39  32  75 SE7       29.96F WCI  34
WIS DELLS      PTCLDY    41  31  68 CALM      30.00S
$$

...ELSEWHERE IN WISCONSIN...


CITY           SKY/WX    TMP DP  RH WIND       PRES   REMARKS
MILWAUKEE      CLOUDY    43  32  65 S9        30.06S
MADISON        CLOUDY    45  30  55 S5        30.01S
GREEN BAY      PTCLDY    36  31  82 SE7       30.05F WCI  30
EAU CLAIRE     CLOUDY    39  21  48 S7        29.94S WCI  34
BLACK RVR FLS  FAIR      42  26  53 S5        29.97S
MEDFORD        CLOUDY    33  18  55 SE3       29.95S
WAUSAU         CLEAR     38  19  46 SE6       29.97S WCI  33
WIS RAPIDS     CLEAR     40  28  62 S5        30.01R
MARSHFIELD     CLEAR     35  21  56 S8        29.96S WCI  29
RICE LAKE      PTCLDY    36  22  57 SE7       29.94R WCI  31
$$

...NORTHEAST IOWA...


CITY           SKY/WX    TMP DP  RH WIND       PRES   REMARKS
WATERLOO       CLOUDY    47  29  49 SE7       29.90F
DUBUQUE        CLOUDY    44  32  62 SE7       29.97F
DECORAH        CLOUDY    41  32  70 SE8       29.93S
MASON CITY     CLOUDY    40  31  70 SE10      29.87F WCI  33
CHARLES CITY   CLOUDY    41  34  75 SE8       29.90F
OELWEIN        CLOUDY    45  34  65 SE9       29.92F
$$

...ELSEWHERE IN IOWA...


CITY           SKY/WX    TMP DP  RH WIND       PRES   REMARKS
DES MOINES     CLOUDY    54  22  28 SE10      29.84F
IOWA CITY      CLOUDY    52  29  41 SE8       29.95F
FORT DODGE     PTCLDY    39  30  70 E9        29.83F WCI  33
MARSHALLTOWN   CLOUDY    48  30  49 SE14      29.87F
CEDAR RAPIDS   CLOUDY    49  30  48 SE8       29.92F
$$

...NORTHERN ILLINOIS...


CITY           SKY/WX    TMP DP  RH WIND       PRES   REMARKS
CHICAGO-OHARE  CLOUDY    48  34  58 E9        30.06S
CHICAGO-MIDWAY CLOUDY    53  31  42 SE6       30.07S
MOLINE         CLOUDY    50  30  46 SE8       29.97F
ROCKFORD       CLOUDY    47  33  58 SE7       30.04F
PEORIA         CLOUDY    55  33  43 SE6       30.01F
$$

NOTE: "FAIR" INDICATES FEW OR NO CLOUDS BELOW 12,000 FEET WITH NO
SIGNIFICANT WEATHER AND/OR OBSTRUCTIONS TO VISIBILITY. WIND
SPEEDS ARE IN MILES-PER-HOUR.




USA.gov is the U.S. government's official web portal to all federal, state and local government web resources and services.